Weather History for Columbia, SC

Change the Weather History Date:

Thursday, September 26, 2013

  Actual Average Record
Temperature  
Mean Temperature 73 °F 71 °F  
Max Temperature 81 °F 82 °F 97 °F (1984)
Min Temperature 64 °F 60 °F 45 °F (1950)
Degree Days  
Heating Degree Days 0 1  
Month to date heating degree days 0 3  
Since 1 July heating degree days 0 3  
Cooling Degree Days 8 7  
Month to date cooling degree days 333 274  
Year to date cooling degree days 2026 2042  
Growing Degree Days 22 (Base 50)    
Moisture  
Dew Point 60 °F    
Average Humidity 68    
Maximum Humidity 93    
Minimum Humidity 42    
Precipitation  
Precipitation 0.00 in 0.11 in 4.23 in (1953)
Month to date precipitation 2.04 3.08  
Year to date precipitation 45.55 35.00  
Sea Level Pressure  
Sea Level Pressure 29.91 in    
Wind  
Wind Speed 6 mph (NNE)    
Max Wind Speed 14 mph    
Max Gust Speed 17 mph    
Visibility 8 miles    
Events Rain    
T = Trace of Precipitation, MM = Missing Value Source: NWS Daily Summary

Daily Weather History Graph

Daily Weather History Graph

Search for Another Location

Airport:

Trip Planner

Search our weather history database for the weather conditions in past years. The results will help you decide how hot, cold, wet, or windy it might be!

Date:

Astronomy

Sep. 26, 2013 Rise Set
Actual Time 7:15 AM EDT 7:15 PM EDT
Civil Twilight 6:50 AM EDT 7:40 PM EDT
Nautical Twilight 6:21 AM EDT 8:09 PM EDT
Astronomical Twilight 5:52 AM EDT 8:38 PM EDT
Moon No Moon Rise 1:52 PM EDT (9/26)
Length of Visible Light 12h 49m
Length of Day
11h 59m
Waning Gibbous, 55% of the Moon is Illuminated
Sep 26
Waning Gibbous
Sep 26
Last Quarter
Oct 4
New
Oct 11
First Quarter
Oct 18
Full

Hourly Weather History & Observations

Time (EDT) Temp. Heat Index Dew Point Humidity Pressure Visibility Wind Dir Wind Speed Gust Speed Precip Events Conditions
12:30 AM 64.4 °F - 62.6 °F 94% 29.89 in 2.5 mi NNE 5.8 mph - 0.04 in Rain Light Rain
12:56 AM 64.0 °F - 63.0 °F 96% 29.88 in 2.5 mi North 5.8 mph - 0.04 in   Overcast
1:04 AM 64.4 °F - 62.6 °F 94% 29.88 in 2.5 mi North 4.6 mph - N/A   Overcast
1:56 AM 64.0 °F - 63.0 °F 96% 29.87 in 2.5 mi NNE 4.6 mph - N/A   Overcast
2:17 AM 64.4 °F - 62.6 °F 94% 29.87 in 4.0 mi North 3.5 mph - N/A   Overcast
2:56 AM 64.0 °F - 63.0 °F 96% 29.87 in 5.0 mi NNE 5.8 mph - N/A   Overcast
3:56 AM 64.0 °F - 63.0 °F 96% 29.86 in 7.0 mi Calm Calm - N/A   Overcast
4:56 AM 64.0 °F - 63.0 °F 96% 29.86 in 7.0 mi North 4.6 mph - N/A   Overcast
5:34 AM 64.4 °F - 62.6 °F 94% 29.87 in 7.0 mi North 3.5 mph - N/A   Overcast
5:56 AM 64.0 °F - 63.0 °F 96% 29.87 in 7.0 mi NNE 3.5 mph - N/A   Overcast
6:56 AM 64.0 °F - 62.1 °F 93% 29.89 in 7.0 mi North 3.5 mph - N/A   Overcast
7:56 AM 64.9 °F - 63.0 °F 93% 29.90 in 6.0 mi Calm Calm - N/A   Mostly Cloudy
8:56 AM 66.9 °F - 63.0 °F 87% 29.91 in 6.0 mi NNE 8.1 mph - N/A   Overcast
9:13 AM 68.0 °F - 62.6 °F 83% 29.92 in 7.0 mi North 8.1 mph - N/A   Overcast
9:56 AM 68.0 °F - 63.0 °F 84% 29.94 in 7.0 mi North 4.6 mph - N/A   Mostly Cloudy
10:56 AM 72.0 °F - 61.0 °F 68% 29.94 in 10.0 mi North 6.9 mph - N/A   Scattered Clouds
11:56 AM 73.9 °F - 61.0 °F 64% 29.94 in 10.0 mi NNE 4.6 mph - N/A   Mostly Cloudy
12:56 PM 75.9 °F - 60.1 °F 58% 29.93 in 10.0 mi NE 8.1 mph - N/A   Mostly Cloudy
1:56 PM 79.0 °F - 59.0 °F 50% 29.91 in 10.0 mi NNE 9.2 mph - N/A   Scattered Clouds
2:56 PM 79.0 °F - 55.0 °F 44% 29.90 in 10.0 mi NNE 9.2 mph - N/A   Scattered Clouds
3:56 PM 80.1 °F 80.4 °F 57.0 °F 45% 29.90 in 10.0 mi North 6.9 mph - N/A   Scattered Clouds
4:56 PM 81.0 °F 80.8 °F 55.9 °F 42% 29.91 in 10.0 mi North 6.9 mph - N/A   Scattered Clouds
5:56 PM 80.1 °F 80.2 °F 55.9 °F 43% 29.92 in 10.0 mi NNE 9.2 mph - N/A   Scattered Clouds
6:56 PM 77.0 °F - 57.0 °F 50% 29.93 in 10.0 mi NNE 5.8 mph - N/A   Partly Cloudy
7:56 PM 73.9 °F - 57.9 °F 57% 29.94 in 10.0 mi North 5.8 mph - N/A   Clear
8:56 PM 72.0 °F - 57.9 °F 61% 29.96 in 10.0 mi North 4.6 mph - N/A   Clear
9:56 PM 70.0 °F - 57.9 °F 65% 29.97 in 10.0 mi North 5.8 mph - N/A   Clear
10:56 PM 69.1 °F - 57.0 °F 65% 29.99 in 10.0 mi NNE 8.1 mph - N/A   Scattered Clouds
11:56 PM 69.1 °F - 57.0 °F 65% 30.00 in 10.0 mi NNE 6.9 mph - N/A   Scattered Clouds